Flag for U.S.A. Weather past 2 weeks in St. George, Utah, U.S.A.

Now
63 °F

Clear.


Feels Like: 63 °F
Forecast: 55 / 79 °F
Wind: 3 mph from Southeast

Location: Saint George

Current Time: Oct 22, 2014 at 10:36:29 PM

Latest Report: Oct 22, 2014 at 10:15 PM


Visibility: 10 mi

Pressure: 30.09 "Hg

Humidity: 34%

Dew point: 34 °F

Location of St. GeorgeLocation

Historic Weather in St. George — Graph

°F

St. George temperature yesterday

Maximum temperature yesterday: 81 °F (at 1:35 PM)
Minimum temperature yesterday: 59 °F (at 7:35 AM)
Average temperature yesterday: 71 °F

Past Weeks' High & Low Weather Summary

 TemperatureHumidityPressure
High88 °F (Oct 20, 3:55 PM)59% (Oct 10, 6:35 AM)30.29 "Hg (Oct 10, 6:35 AM)
Low48 °F (Oct 13, 7:55 AM)11% (Oct 14, 5:35 PM)29.86 "Hg (Oct 21, 4:15 PM)
Average68 °F31%30.01 "Hg
* Reported Oct 7 9:15 PM — Oct 22 9:35 PM, St. George, Weather by CustomWeather, © 2014

Note: Actual official high and low records may vary slightly from our data, if they occured in-between our weather recording intervals... More about our weather records

Advertising

St. George weather history for previous 24 hours

 ConditionsComfort  
Time TempWeatherWind HumidityBarometerVisibility
9:35 PM
Oct 22
64 °FClear.5 mph30%30.09 "Hg10 mi
9:15 PM66 °FClear.6 mph26%30.08 "Hg10 mi
8:55 PM70 °FClear.3 mph23%30.08 "Hg10 mi
8:35 PM70 °FClear.No wind25%30.08 "Hg10 mi
8:15 PM68 °FClear.No wind24%30.07 "Hg10 mi
7:55 PM72 °FClear.6 mph23%30.06 "Hg10 mi
7:35 PM72 °FSunny.7 mph23%30.06 "Hg10 mi
7:15 PM73 °FSunny.6 mph23%30.05 "Hg10 mi
6:55 PM75 °FSunny.6 mph22%30.05 "Hg10 mi
6:35 PM77 °FSunny.9 mph21%30.04 "Hg10 mi
6:15 PM79 °FSunny.12 mph21%30.04 "Hg10 mi
5:55 PM79 °FSunny.12 mph21%30.04 "Hg10 mi
5:35 PM79 °FSunny.6 mph21%30.04 "Hg10 mi
5:15 PM79 °FSunny.7 mph21%30.04 "Hg10 mi
4:55 PM79 °FSunny.7 mph20%30.04 "Hg10 mi
4:35 PM79 °FSunny.7 mph20%30.04 "Hg10 mi
4:15 PM79 °FSunny.7 mph20%30.04 "Hg10 mi
3:55 PM79 °FSunny.8 mph20%30.04 "Hg10 mi
3:35 PM79 °FSunny.6 mph21%30.04 "Hg10 mi
3:15 PM79 °FSunny.6 mph21%30.05 "Hg10 mi
2:55 PM75 °FSunny.6 mph25%30.05 "Hg10 mi
2:35 PM75 °FSunny.No wind27%30.06 "Hg10 mi
2:15 PM75 °FSunny.No wind27%30.07 "Hg10 mi
1:55 PM75 °FSunny.5 mph27%30.07 "Hg10 mi
1:35 PM73 °FSunny.No wind29%30.08 "Hg10 mi
1:15 PM72 °FSunny.No wind31%30.09 "Hg10 mi
12:55 PM72 °FSunny.3 mph31%30.10 "Hg10 mi
12:35 PM70 °FSunny.No wind33%30.11 "Hg10 mi
12:15 PM70 °FSunny.5 mph33%30.11 "Hg10 mi
11:55 AM68 °FSunny.3 mph35%30.12 "Hg10 mi
11:35 AM70 °FSunny.No wind33%30.12 "Hg10 mi
11:15 AM66 °FSunny.No wind35%30.12 "Hg10 mi
10:55 AM64 °FSunny.No wind37%30.12 "Hg10 mi
10:35 AM64 °FSunny.No wind37%30.12 "Hg10 mi
10:15 AM63 °FSunny.3 mph37%30.11 "Hg10 mi
9:55 AM63 °FSunny.3 mph39%30.11 "Hg10 mi
9:35 AM61 °FSunny.3 mph42%30.11 "Hg10 mi
9:15 AM57 °FSunny.5 mph48%30.10 "Hg10 mi
8:15 AM55 °FClear.3 mph47%30.08 "Hg10 mi
7:55 AM55 °FClear.No wind47%30.06 "Hg10 mi
7:35 AM57 °FClear.No wind44%30.06 "Hg10 mi
7:15 AM57 °FClear.No wind44%30.05 "Hg10 mi
6:55 AM57 °FClear.No wind44%30.04 "Hg10 mi
6:35 AM57 °FClear.No wind44%30.03 "Hg10 mi
5:55 AM57 °FClear.No wind44%30.02 "Hg10 mi
5:35 AM57 °FClear.3 mph44%30.01 "Hg10 mi
5:15 AM57 °FClear.No wind44%30.01 "Hg10 mi
4:55 AM57 °FClear.No wind44%30.00 "Hg10 mi
4:35 AM57 °FClear.5 mph44%29.99 "Hg10 mi
4:15 AM55 °FClear.3 mph44%29.99 "Hg10 mi
3:55 AM59 °FClear.3 mph42%29.99 "Hg10 mi
3:35 AM59 °FClear.6 mph42%29.98 "Hg10 mi
3:15 AM61 °FClear.6 mph36%29.98 "Hg10 mi
2:55 AM61 °FClear.5 mph36%29.98 "Hg10 mi
2:35 AM64 °FClear.No wind32%29.97 "Hg10 mi
2:15 AM64 °FClear.5 mph34%29.96 "Hg10 mi
1:55 AM63 °FClear.7 mph37%29.95 "Hg10 mi
1:35 AM63 °FClear.6 mph37%29.95 "Hg10 mi
1:15 AM63 °FClear.6 mph37%29.95 "Hg10 mi
12:55 AM64 °FClear.6 mph34%29.95 "Hg10 mi
12:35 AM64 °FClear.7 mph34%29.94 "Hg10 mi
12:15 AM64 °FClear.7 mph34%29.94 "Hg10 mi
11:55 PM
Oct 21
66 °FClear.5 mph32%29.94 "Hg10 mi
11:35 PM66 °FClear.5 mph32%29.93 "Hg10 mi
11:15 PM64 °FClear.5 mph32%29.93 "Hg10 mi
10:55 PM66 °FClear.9 mph32%29.92 "Hg10 mi
10:35 PM68 °FClear.5 mph30%29.92 "Hg10 mi
10:15 PM70 °FClear.5 mph27%29.92 "Hg10 mi
Weather by CustomWeather, © 2014

See weather overviewHow to use our weather pages